DW5893 Weather Reports


time (UTC)temp
F
wind
direction
speed
knots
gust
knots
rain 1hr
in
rain 24hr
in
rain mn
in
humidity
%
barometer
mb
20260906214519 87 360 5.2 0.0 0.00 0.00 0.00 51 999.5
20260906214018 87 360 5.2 0.0 0.00 0.00 0.00 51 999.6
20260906213522 87 360 5.2 0.0 0.00 0.00 0.00 52 999.7
20260906212556 87 360 6.1 0.0 0.00 0.00 0.00 52 999.8
20260906212058 86 360 5.2 0.0 0.00 0.00 0.00 53 999.9
20260906211555 86 360 4.3 0.0 0.00 0.00 0.00 53 1000.0
20260906211053 86 360 3.5 0.0 0.00 0.00 0.00 54 1000.2
20260906210553 85 360 2.6 0.0 0.00 0.00 0.00 55 1000.3
20260906205534 85 360 3.5 0.0 0.00 0.00 0.00 57 1000.5
20260906205032 84 360 4.3 0.0 0.00 0.00 0.00 58 1000.6
20260906204533 84 360 6.1 0.0 0.00 0.00 0.00 58 1000.7
20260906204033 84 360 4.3 0.0 0.00 0.00 0.00 58 1000.7
20260906203532 84 360 3.5 0.0 0.00 0.00 0.00 59 1000.8
20260906203034 83 360 2.6 0.0 0.00 0.00 0.00 61 1000.9
20260906202530 83 351 3.5 0.0 0.00 0.00 0.00 61 1000.9
20260906202030 83 360 3.5 0.0 0.00 0.00 0.00 61 1000.9
20260906201540 83 360 4.3 0.0 0.00 0.00 0.00 62 1001.0
20260906201028 83 360 3.5 0.0 0.00 0.00 0.00 62 1001.1
20260906200527 83 360 4.3 0.0 0.00 0.00 0.00 63 1001.2
20260906195525 82 360 7.0 0.0 0.00 0.00 0.00 64 1001.2
20260906195025 82 360 6.1 0.0 0.00 0.00 0.00 65 1001.2
20260906194525 82 360 5.2 0.0 0.00 0.00 0.00 65 1001.3
20260906194023 81 360 6.1 0.0 0.00 0.00 0.00 66 1001.4
20260906193525 82 360 7.0 0.0 0.00 0.00 0.00 65 1001.4
20260906193025 82 360 6.1 0.0 0.00 0.00 0.00 66 1001.5
20260906192522 81 360 7.0 0.0 0.00 0.00 0.00 68 1001.5
20260906192022 81 360 7.8 0.0 0.00 0.00 0.00 68 1001.5
20260906191522 81 360 7.0 0.0 0.00 0.00 0.00 68 1001.5
20260906191022 80 360 7.0 0.0 0.00 0.00 0.00 69 1001.5
20260906190523 81 360 5.2 0.0 0.00 0.00 0.00 69 1001.6
20260906185520 81 360 3.5 0.0 0.00 0.00 0.00 68 1001.8
20260906185024 81 360 5.2 0.0 0.00 0.00 0.00 65 1001.9
20260906184519 80 360 5.2 0.0 0.00 0.00 0.00 65 1002.0
20260906184022 80 360 4.3 0.0 0.00 0.00 0.00 66 1001.9
20260906183519 80 360 4.3 0.0 0.00 0.00 0.00 68 1002.0
20260906183019 80 360 4.3 0.0 0.00 0.00 0.00 67 1002.1
20260906182517 80 360 3.5 0.0 0.00 0.00 0.00 67 1002.0
20260906182016 79 360 4.3 0.0 0.00 0.00 0.00 69 1002.0
20260906181516 79 360 4.3 0.0 0.00 0.00 0.00 69 1002.0
20260906181015 79 360 3.5 0.0 0.00 0.00 0.00 70 1001.9
20260906180520 79 360 2.6 0.0 0.00 0.00 0.00 69 1001.9
20260906175514 79 360 1.7 0.0 0.00 0.00 0.00 69 1002.1
20260906175014 79 360 0.9 0.0 0.00 0.00 0.00 70 1002.2
20260906174512 78 360 0.9 0.0 0.00 0.00 0.00 71 1002.2
20260906174010 78 360 1.7 0.0 0.00 0.00 0.00 72 1002.3
20260906173508 77 360 1.7 0.0 0.00 0.00 0.00 74 1002.3
20260906173007 77 360 2.6 0.0 0.00 0.00 0.00 75 1002.2
20260906172507 76 360 3.5 0.0 0.00 0.00 0.00 76 1002.2
20260906172006 76 360 2.6 0.0 0.00 0.00 0.00 77 1002.2
20260906171505 76 360 2.6 0.0 0.00 0.00 0.00 77 1002.1
20260906171003 75 360 2.6 0.0 0.00 0.00 0.00 78 1002.2
20260906170505 74 360 1.7 0.0 0.00 0.00 0.00 81 1002.3
20260906165503 74 360 2.6 0.0 0.00 0.00 0.00 82 1002.2
20260906165003 73 360 2.6 0.0 0.00 0.00 0.00 82 1002.2
20260906164502 73 360 3.5 0.0 0.00 0.00 0.00 82 1002.0
20260906164002 73 360 4.3 0.0 0.00 0.00 0.00 82 1002.3
20260906163600 73 360 4.3 0.0 0.00 0.00 0.00 84 1002.2
20260906163102 72 360 4.3 0.0 0.00 0.00 0.00 86 1002.2
20260906162558 71 360 5.2 0.0 0.00 0.00 0.00 87 1002.0
20260906162055 70 360 4.3 0.0 0.00 0.00 0.00 88 1002.0
20260906161556 70 360 5.2 0.0 0.00 0.00 0.00 89 1002.2
20260906161053 69 360 6.1 0.0 0.00 0.00 0.00 90 1002.4
20260906160553 69 360 7.0 0.0 0.00 0.00 0.00 91 1002.0
20260906155553 68 360 7.0 0.0 0.00 0.00 0.00 92 1002.1
20260906155053 68 360 6.1 0.0 0.00 0.00 0.00 93 1002.1
20260906154553 67 360 6.1 0.0 0.00 0.00 0.00 93 1002.3
20260906154053 67 360 6.1 0.0 0.00 0.00 0.00 93 1002.2
20260906153554 67 360 6.1 0.0 0.00 0.00 0.00 93 1002.3
20260906153112 67 360 6.1 0.0 0.00 0.00 0.00 93 1002.3
20260906152551 67 360 6.1 0.0 0.00 0.00 0.00 93 1002.5
20260906152052 67 360 5.2 0.0 0.00 0.00 0.00 93 1002.4
20260906151559 67 360 5.2 0.0 0.00 0.00 0.00 93 1002.4
20260906151051 67 360 7.0 0.0 0.00 0.00 0.00 93 1002.4
20260906150552 67 360 7.8 0.0 0.00 0.00 0.00 93 1001.7
20260906145550 67 360 8.7 0.0 0.00 0.00 0.00 93 1002.1
20260906145050 67 360 7.0 0.0 0.00 0.00 0.00 93 1001.9
20260906144553 66 360 3.5 0.0 0.00 0.00 0.00 93 1002.5
20260906144052 66 360 2.6 0.0 0.00 0.00 0.00 93 1003.3
20260906143550 66 360 2.6 0.0 0.00 0.00 0.00 93 1003.3
20260906143052 66 360 1.7 0.0 0.00 0.00 0.00 93 1003.6
20260906142549 66 360 3.5 0.0 0.00 0.00 0.00 93 1004.0
20260906142049 66 360 2.6 0.0 0.00 0.00 0.00 93 1003.9
20260906141551 66 360 5.2 0.0 0.00 0.00 0.00 93 1003.8
20260906141048 66 360 9.6 0.0 0.00 0.00 0.00 94 1002.9
20260906140549 66 360 11.3 0.0 0.00 0.00 0.00 94 1001.9
20260906135549 66 360 10.4 0.0 0.00 0.00 0.00 94 1001.6
20260906135046 66 360 9.6 0.0 0.00 0.00 0.00 95 1001.9
20260906134606 66 360 8.7 0.0 0.00 0.00 0.00 95 1002.2
20260906134045 65 360 8.7 0.0 0.00 0.00 0.00 95 1002.4
20260906133544 65 360 7.0 0.0 0.00 0.00 0.00 95 1002.6
20260906133051 65 360 6.1 0.0 0.00 0.00 0.00 95 1002.7
20260906132544 65 360 4.3 0.0 0.00 0.00 0.00 96 1003.0
20260906132045 65 360 3.5 0.0 0.00 0.00 0.00 96 1003.3
20260906131544 65 360 3.5 0.0 0.00 0.00 0.00 96 1003.3
20260906131044 65 360 2.6 0.0 0.00 0.00 0.00 96 1003.5
20260906130544 65 360 3.5 0.0 0.00 0.00 0.00 96 1003.7
20260906125543 65 360 4.3 0.0 0.00 0.00 0.00 96 1003.5
20260906125043 64 360 3.5 0.0 0.00 0.00 0.00 96 1003.6
20260906124544 64 360 3.5 0.0 0.00 0.00 0.00 96 1003.7
20260906124043 64 360 3.5 0.0 0.00 0.00 0.00 96 1003.6
20260906123541 64 360 1.7 0.0 0.00 0.00 0.00 96 1003.4
20260906123053 64 360 0.9 0.0 0.00 0.00 0.00 96 1003.5
20260906122542 63 360 0.9 0.0 0.00 0.00 0.00 96 1003.6
20260906122042 63 360 1.7 0.0 0.00 0.00 0.00 96 1003.6
20260906121544 63 360 0.9 0.0 0.00 0.00 0.00 96 1003.5
20260906121042 62 360 0.0 0.0 0.00 0.00 0.00 96 1003.5
20260906120544 62 360 0.0 0.0 0.00 0.00 0.00 95 1003.6
20260906115542 61 360 0.0 0.0 0.00 0.00 0.00 95 1003.7
20260906115041 61 360 0.0 0.0 0.00 0.00 0.00 95 1003.6
20260906114542 61 360 0.0 0.0 0.00 0.00 0.00 95 1003.6
20260906114042 61 360 0.0 0.0 0.00 0.00 0.00 96 1003.5
20260906113541 60 360 0.0 0.0 0.00 0.00 0.00 96 1003.7
20260906113043 59 360 0.0 0.0 0.00 0.00 0.00 96 1003.6
20260906112539 58 360 0.0 0.0 0.00 0.00 0.00 95 1003.4
20260906112039 58 360 0.0 0.0 0.00 0.00 0.00 94 1003.2
20260906111539 58 360 0.0 0.0 0.00 0.00 0.00 94 1003.2
20260906111039 59 360 0.0 0.0 0.00 0.00 0.00 94 1003.3
20260906110538 59 360 0.0 0.0 0.00 0.00 0.00 93 1003.4
20260906105536 59 360 0.0 0.0 0.00 0.00 0.00 93 1003.4
20260906105037 60 360 0.0 0.0 0.00 0.00 0.00 93 1003.2
20260906104536 61 360 0.0 0.0 0.00 0.00 0.00 93 1003.0
20260906104037 61 360 0.0 0.0 0.00 0.00 0.00 95 1002.9
20260906103535 61 360 0.0 0.0 0.00 0.00 0.00 95 1002.8
20260906103045 60 360 0.0 0.0 0.00 0.00 0.00 95 1002.8
20260906102535 60 360 0.0 0.0 0.00 0.00 0.00 94 1002.6
20260906102035 60 360 0.0 0.0 0.00 0.00 0.00 94 1002.6
20260906101535 60 360 0.0 0.0 0.00 0.00 0.00 94 1002.6
20260906101035 60 360 0.0 0.0 0.00 0.00 0.00 94 1002.5
20260906100535 60 360 0.0 0.0 0.00 0.00 0.00 94 1002.5
20260906095534 60 360 0.0 0.0 0.00 0.00 0.00 93 1002.5
20260906095035 59 360 0.0 0.0 0.00 0.00 0.00 92 1002.4
20260906094533 60 360 0.0 0.0 0.00 0.00 0.00 91 1002.5
20260906094033 62 360 0.0 0.0 0.00 0.00 0.00 92 1002.7
20260906093534 62 360 0.0 0.0 0.00 0.00 0.00 93 1002.7
20260906093037 62 360 0.0 0.0 0.00 0.00 0.00 94 1002.7
20260906092536 62 360 0.0 0.0 0.00 0.00 0.00 93 1002.5
20260906092034 62 360 0.0 0.0 0.00 0.00 0.00 92 1002.4
20260906091531 62 360 0.0 0.0 0.00 0.00 0.00 92 1002.4
20260906091033 63 360 0.0 0.0 0.00 0.00 0.00 93 1002.4
20260906090531 63 360 0.0 0.0 0.00 0.00 0.00 93 1002.4
20260906085528 63 360 0.0 0.0 0.00 0.00 0.00 92 1002.4
20260906085027 63 360 0.0 0.0 0.00 0.00 0.00 93 1002.5
20260906084527 63 360 0.0 0.0 0.00 0.00 0.00 92 1002.6
20260906084026 63 360 0.0 0.0 0.00 0.00 0.00 91 1002.6
20260906083525 64 360 0.0 0.0 0.00 0.00 0.00 91 1002.5
20260906083029 64 360 0.0 0.0 0.00 0.00 0.00 91 1002.6
20260906082524 65 360 0.0 0.0 0.00 0.00 0.00 92 1002.6
20260906082025 65 360 0.0 0.0 0.00 0.00 0.00 92 1002.6
20260906081523 65 360 0.0 0.0 0.00 0.00 0.00 91 1002.6
20260906081022 66 360 0.0 0.0 0.00 0.00 0.00 93 1002.7
20260906080522 65 360 0.0 0.0 0.00 0.00 0.00 93 1002.7
20260906075520 65 360 0.0 0.0 0.00 0.00 0.00 92 1002.8
20260906075021 65 360 0.0 0.0 0.00 0.00 0.00 92 1002.9
20260906074521 65 360 0.0 0.0 0.00 0.00 0.00 92 1002.9
20260906074021 65 360 0.0 0.0 0.00 0.00 0.00 92 1002.9
20260906073521 65 360 0.0 0.0 0.00 0.00 0.00 92 1003.0
20260906073019 65 360 0.0 0.0 0.00 0.00 0.00 91 1003.0
20260906072518 65 360 0.0 0.0 0.00 0.00 0.00 90 1003.0
20260906072022 66 360 0.0 0.0 0.00 0.00 0.00 91 1003.1
20260906071517 66 360 0.0 0.0 0.00 0.00 0.00 90 1003.2
20260906071017 66 360 0.0 0.0 0.00 0.00 0.00 90 1003.2
20260906070516 66 360 0.0 0.0 0.00 0.00 0.00 89 1003.2
20260906065516 66 360 0.0 0.0 0.00 0.00 0.00 89 1003.1
20260906065014 67 360 0.0 0.0 0.00 0.00 0.00 88 1003.2
20260906064513 67 360 0.0 0.0 0.00 0.00 0.00 88 1003.2
20260906064012 67 360 0.0 0.0 0.00 0.00 0.00 88 1003.2
20260906063511 68 360 0.0 0.0 0.00 0.00 0.00 88 1003.2
20260906063011 68 360 0.0 0.0 0.00 0.00 0.00 89 1003.2
20260906062511 68 360 0.0 0.0 0.00 0.00 0.00 89 1003.2
20260906062010 68 360 0.0 0.0 0.00 0.00 0.00 89 1003.3
20260906061510 68 360 0.0 0.0 0.00 0.00 0.00 89 1003.2
20260906061008 69 360 0.0 0.0 0.00 0.00 0.00 88 1003.2
20260906060507 69 360 0.0 0.0 0.00 0.00 0.00 88 1003.3
20260906055510 69 360 0.9 0.0 0.00 0.00 0.00 87 1003.2
20260906055007 69 360 1.7 0.0 0.00 0.00 0.00 87 1003.2
20260906054506 70 360 2.6 0.0 0.00 0.00 0.00 86 1003.2
20260906054006 70 360 2.6 0.0 0.00 0.00 0.00 86 1003.2
20260906053507 70 360 2.6 0.0 0.00 0.00 0.00 86 1003.2
20260906053007 70 360 1.7 0.0 0.00 0.00 0.00 86 1003.2
20260906052507 70 360 0.9 0.0 0.00 0.00 0.00 86 1003.1
20260906052011 70 360 0.9 0.0 0.00 0.00 0.00 86 1003.2
20260906051507 70 360 0.9 0.0 0.00 0.00 0.00 86 1003.1
20260906051007 70 360 0.0 0.0 0.00 0.00 0.00 86 1003.2
20260906050506 70 360 0.9 0.0 0.00 0.00 0.00 86 1003.2
20260906045507 71 360 1.7 0.0 0.00 0.00 0.00 84 1003.2
20260906045010 71 360 0.9 0.0 0.00 0.00 0.00 84 1003.2
20260906044506 71 360 0.9 0.0 0.00 0.00 0.00 83 1003.3
20260906044008 72 360 1.7 0.0 0.00 0.00 0.00 83 1003.2
20260906043507 72 360 3.5 0.0 0.00 0.00 0.00 83 1003.2
20260906043006 72 360 4.3 0.0 0.00 0.00 0.00 82 1003.2
20260906042506 73 360 6.1 0.0 0.00 0.00 0.00 82 1003.2
20260906042005 73 360 6.1 0.0 0.00 0.00 0.00 81 1003.2
20260906041507 73 360 6.1 0.0 0.00 0.00 0.00 81 1003.2
20260906041011 73 360 7.0 0.0 0.00 0.00 0.00 81 1003.1
20260906040505 74 360 7.8 0.0 0.00 0.00 0.00 80 1003.2
20260906040011 74 360 7.8 0.0 0.00 0.00 0.00 79 1003.2
20260906035504 74 360 8.7 0.0 0.00 0.00 0.00 79 1003.2
20260906035004 74 360 8.7 0.0 0.00 0.00 0.00 78 1003.2
20260906034505 75 360 9.6 0.0 0.00 0.00 0.00 78 1003.2
20260906034006 75 360 9.6 0.0 0.00 0.00 0.00 77 1003.2
20260906033504 75 360 9.6 0.0 0.00 0.00 0.00 77 1003.2
20260906032503 75 360 9.6 0.0 0.00 0.00 0.00 76 1003.2
20260906032004 75 360 9.6 0.0 0.00 0.00 0.00 76 1003.2
20260906031503 75 360 8.7 0.0 0.00 0.00 0.00 76 1003.3
20260906031003 75 360 8.7 0.0 0.00 0.00 0.00 77 1003.3
20260906030504 75 360 8.7 0.0 0.00 0.00 0.00 77 1003.3
20260906030003 75 360 8.7 0.0 0.00 0.00 0.00 77 1003.3
20260906025502 74 360 8.7 0.0 0.00 0.00 0.00 77 1003.1
20260906025002 74 360 7.8 0.0 0.00 0.00 0.00 77 1003.2
20260906024502 74 360 8.7 0.0 0.00 0.00 0.00 76 1003.1
20260906024001 75 360 8.7 0.0 0.00 0.00 0.00 76 1003.1
20260906023600 75 360 9.6 0.0 0.00 0.00 0.00 76 1003.0
20260906023501 75 360 9.6 0.0 0.00 0.00 0.00 76 1003.0
20260906023200 75 360 9.6 0.0 0.00 0.00 0.00 75 1002.9
20260906022602 75 360 10.4 0.0 0.00 0.00 0.00 75 1002.9
20260906022100 75 360 9.6 0.0 0.00 0.00 0.00 74 1002.8
20260906021607 76 360 9.6 0.0 0.00 0.00 0.00 74 1002.9
20260906021101 76 360 8.7 0.0 0.00 0.00 0.00 73 1002.8
20260906020600 76 360 8.7 0.0 0.00 0.00 0.00 73 1002.8
20260906020106 76 360 7.8 0.0 0.00 0.00 0.00 73 1002.8
20260906015558 76 360 7.0 0.0 0.00 0.00 0.00 73 1002.6
20260906015057 76 360 7.0 0.0 0.00 0.00 0.00 72 1002.5
20260906014557 76 360 7.0 0.0 0.00 0.00 0.00 72 1002.5
20260906014056 77 360 7.8 0.0 0.00 0.00 0.00 72 1002.4
20260906013556 77 360 8.7 0.0 0.00 0.00 0.00 71 1002.3
20260906013155 77 360 8.7 0.0 0.00 0.00 0.00 70 1002.2
20260906012554 77 360 7.8 0.0 0.00 0.00 0.00 70 1002.2
20260906012054 78 360 7.8 0.0 0.00 0.00 0.00 69 1002.0
20260906011554 78 360 7.8 0.0 0.00 0.00 0.00 68 1001.9
20260906011053 79 360 8.7 0.0 0.00 0.00 0.00 67 1001.7
20260906010553 79 360 7.0 0.0 0.00 0.00 0.00 66 1001.6
20260906010054 80 360 5.2 0.0 0.00 0.00 0.00 66 1001.6
20260906005553 80 360 4.3 0.0 0.00 0.00 0.00 65 1001.4
20260906005053 81 360 3.5 0.0 0.00 0.00 0.00 65 1001.4
20260906004555 81 360 3.5 0.0 0.00 0.00 0.00 65 1001.3
20260906004053 81 360 5.2 0.0 0.00 0.00 0.00 64 1001.3
20260906003552 82 360 6.1 0.0 0.00 0.00 0.00 63 1001.4
20260906003154 82 360 5.2 0.0 0.00 0.00 0.00 63 1001.4
20260906002552 82 360 5.2 0.0 0.00 0.00 0.00 63 1001.4
20260906002054 82 360 4.3 0.0 0.00 0.00 0.00 63 1001.4
20260906001551 82 360 5.2 0.0 0.00 0.00 0.00 63 1001.4
20260906001056 82 360 5.2 0.0 0.00 0.00 0.00 63 1001.4
20260906000552 82 360 6.1 0.0 0.00 0.00 0.00 63 1001.3
20260906000104 82 360 7.0 0.0 0.00 0.00 0.00 63 1001.3
20260905235551 82 360 7.0 0.0 0.00 0.00 0.00 62 1001.4
20260905235051 82 360 7.0 0.0 0.00 0.00 0.00 63 1001.3
20260905234613 82 360 7.0 0.0 0.00 0.00 0.00 63 1001.3
20260905234050 82 360 7.0 0.0 0.00 0.00 0.00 63 1001.2
20260905233551 82 360 7.8 0.0 0.00 0.00 0.00 62 1001.2
20260905233150 82 360 7.8 0.0 0.00 0.00 0.00 62 1001.1
20260905232551 82 360 7.8 0.0 0.00 0.00 0.00 62 1001.1
20260905232051 82 360 8.7 0.0 0.00 0.00 0.00 63 1001.0
20260905231555 82 360 9.6 0.0 0.00 0.00 0.00 62 1001.1
20260905231051 82 360 8.7 0.0 0.00 0.00 0.00 62 1001.1
20260905230551 82 360 8.7 0.0 0.00 0.00 0.00 62 1001.0
20260905230056 82 360 8.7 0.0 0.00 0.00 0.00 62 1001.0
20260905225550 82 360 9.6 0.0 0.00 0.00 0.00 62 1000.9
20260905225051 82 360 10.4 0.0 0.00 0.00 0.00 62 1000.9
20260905224552 83 360 8.7 0.0 0.00 0.00 0.00 62 1000.8
20260905224051 82 360 8.7 0.0 0.00 0.00 0.00 62 1000.9
20260905223550 82 360 7.8 0.0 0.00 0.00 0.00 62 1001.1
20260905223150 83 360 7.8 0.0 0.00 0.00 0.00 62 1001.1
20260905222553 83 360 7.0 0.0 0.00 0.00 0.00 62 1001.1
20260905222049 83 360 7.8 0.0 0.00 0.00 0.00 62 1001.0
20260905221554 83 360 7.0 0.0 0.00 0.00 0.00 62 1001.2
20260905221053 83 360 7.0 0.0 0.00 0.00 0.00 63 1001.1
20260905220550 83 360 6.1 0.0 0.00 0.00 0.00 63 1001.1
20260905220058 82 360 6.1 0.0 0.00 0.00 0.00 63 1001.1
20260905215550 83 360 7.8 0.0 0.00 0.00 0.00 62 1001.2
20260905215049 83 360 7.8 0.0 0.00 0.00 0.00 62 1001.1